Baton Rouge, LA

4:39 PM CDT on August 23, 2016 (GMT -0500)
Baton Rouge Metro-Ryan

Weather History for KBTR - March, 2013

Change the Weather History Date:

Tuesday, March 26, 2013

  Actual Average Record
Temperature  
Mean Temperature 45 °F 64 °F  
Max Temperature 56 °F 75 °F 89 °F (1921)
Min Temperature 33 °F 52 °F 32 °F (1955)
Degree Days  
Heating Degree Days 20 4  
Month to date heating degree days 241 150  
Since 1 July heating degree days 1413 1485  
Cooling Degree Days 0 2  
Month to date cooling degree days 18 45  
Year to date cooling degree days 43 76  
Moisture  
Dew Point 23 °F    
Average Humidity 51    
Maximum Humidity 75    
Minimum Humidity 26    
Precipitation  
Precipitation 0.00 in 0.15 in 2.69 in (2009)
Month to date precipitation 2.41 3.65  
Year to date precipitation 24.45 14.41  
Snow  
Snow 0.00 in - - ()
Month to date snowfall 0.0  
Since 1 July snowfall 0.0  
Snow Depth 0.00 in    
Sea Level Pressure  
Sea Level Pressure 30.37 in    
Wind  
Wind Speed 6 mph (NNW)    
Max Wind Speed 20 mph    
Max Gust Speed 26 mph    
Visibility 10 miles    
Events Rain    
T = Trace of Precipitation, MM = Missing Value Source: NWS Daily Summary

Daily Weather History Graph

Daily Weather History Graph

Search for Another Location

Airport or City:

Trip Planner

Search our weather history database for the weather conditions in past years. The results will help you decide how hot, cold, wet, or windy it might be!

Date:

Astronomy

Mar. 26, 2013 Rise Set
Actual Time 7:00 AM CDT 7:20 PM CDT
Civil Twilight 6:36 AM CDT 7:44 PM CDT
Nautical Twilight 6:08 AM CDT 8:12 PM CDT
Astronomical Twilight 5:40 AM CDT 8:40 PM CDT
Moon 6:55 PM CDT (3/26) 6:16 AM CDT (3/26)
Length of Visible Light 13h 07m
Length of Day
12h 19m
Waxing Gibbous, 99% of the Moon is Illuminated
Mar 26
Waxing Gibbous
Mar 27
Full
Apr 2
Last Quarter
Apr 10
New
Apr 18
First Quarter

Hourly Weather History & Observations

Time (CDT) Temp. Windchill Dew Point Humidity Pressure Visibility Wind Dir Wind Speed Gust Speed Precip Events Conditions
12:53 AM 44.1 °F - 21.9 °F 42% 30.30 in 10.0 mi Calm Calm - N/A   Clear
1:53 AM 41.0 °F 39.0 °F 24.1 °F 51% 30.31 in 10.0 mi North 3.5 mph - N/A   Clear
2:53 AM 41.0 °F 38.0 °F 23.0 °F 49% 30.33 in 10.0 mi North 4.6 mph - N/A   Clear
3:53 AM 39.9 °F 36.7 °F 23.0 °F 51% 30.34 in 10.0 mi NNW 4.6 mph - N/A   Clear
4:53 AM 37.9 °F 35.5 °F 23.0 °F 55% 30.36 in 10.0 mi Variable 3.5 mph - N/A   Clear
5:53 AM 36.0 °F - 24.1 °F 62% 30.36 in 10.0 mi Calm Calm - N/A   Clear
6:53 AM 33.1 °F - 26.1 °F 75% 30.38 in 10.0 mi Calm Calm - N/A   Clear
7:53 AM 37.0 °F 33.3 °F 26.1 °F 65% 30.40 in 10.0 mi NW 4.6 mph - N/A   Clear
8:53 AM 43.0 °F - 23.0 °F 45% 30.42 in 10.0 mi Calm Calm - N/A   Clear
9:53 AM 44.1 °F 37.7 °F 19.0 °F 37% 30.43 in 10.0 mi NW 12.7 mph 19.6 mph N/A   Clear
10:53 AM 46.0 °F 42.5 °F 19.9 °F 35% 30.43 in 10.0 mi NNW 6.9 mph - N/A   Clear
11:53 AM 48.0 °F - 21.9 °F 36% 30.42 in 10.0 mi NW 5.8 mph - N/A   Clear
12:53 PM 50.0 °F - 21.0 °F 32% 30.40 in 10.0 mi NW 15.0 mph 23.0 mph 0.00 in Rain Light Rain
1:53 PM 52.0 °F - 21.9 °F 31% 30.38 in 10.0 mi WNW 11.5 mph 20.7 mph 0.00 in   Clear
2:53 PM 53.1 °F - 21.9 °F 30% 30.35 in 10.0 mi NW 11.5 mph 18.4 mph N/A   Clear
3:53 PM 55.0 °F - 21.9 °F 28% 30.32 in 10.0 mi North 11.5 mph 17.3 mph N/A   Clear
4:53 PM 54.0 °F - 19.9 °F 26% 30.33 in 10.0 mi NNW 10.4 mph 18.4 mph N/A   Clear
5:53 PM 54.0 °F - 21.9 °F 29% 30.32 in 10.0 mi NNW 10.4 mph - N/A   Clear
6:53 PM 51.1 °F - 21.0 °F 31% 30.33 in 10.0 mi North 5.8 mph - N/A   Clear
7:53 PM 48.0 °F - 23.0 °F 37% 30.35 in 10.0 mi Calm Calm - N/A   Clear
8:53 PM 45.0 °F - 26.1 °F 48% 30.36 in 10.0 mi Calm Calm - N/A   Clear
9:53 PM 42.1 °F - 30.0 °F 62% 30.38 in 10.0 mi Calm Calm - N/A   Clear
10:53 PM 41.0 °F 38.0 °F 27.0 °F 57% 30.39 in 10.0 mi NE 4.6 mph - N/A   Clear
11:53 PM 39.9 °F 35.8 °F 28.0 °F 63% 30.39 in 10.0 mi NE 5.8 mph - N/A   Clear